Location: Bakov nad Jizerou
(50.4784°N, 14.9394°E)
Time: 12:50:10
(UTC+00:00)

SL-8 R/B - Pass Details

Date: 25 October 2021
Orbit: 656 x 667 km, 48.4° (Epoch: 29 November)

Event Time Altitude Azimuth Distance (km) Brightness Sun altitude
Rises 16:36:11 0° 251° (WSW) 2,979 9.2 -8.2°
Reaches altitude 10° 16:38:32 10° 248° (WSW) 2,070 7.8 -8.6°
Maximum altitude 16:43:15 63° 169° (SSE) 740 3.9 -9.3°
Enters shadow 16:47:27 13° 90° (E) 1,878 5.4 -10.0°
